Regional Weather Roundup
Issued by NWS

Home | Current Version | Previous Version | Graphics & Text | Print | Product List | Glossary On
Versions: 1 2 3 4 5 6 7 8 9 10 11 12 13 14 15 16 17 18 19 20 21 22 23 24 25 26 27 28 29 30 31 32 33 34 35 36 37 38 39 40 41 42 43 44 45 46 47 48 49 50
000
ASUS43 KOAX 212102
RWRNE

WEATHER ROUNDUP FOR NEBRASKA
NATIONAL WEATHER SERVICE OMAHA NE
400 PM CDT FRI JUL 21 2017

NOTES: SATELLITE DATA IS BEING USED TO AUGMENT CLOUD COVER ABOVE
       12000 FEET.
       "FAIR" INDICATES FEW OR NO CLOUDS BELOW 12,000 FEET WITH NO
       SIGNIFICANT WEATHER AND/OR OBSTRUCTIONS TO VISIBILITY.


NEZ001>004-019>022-054>056-212200-
NEBRASKA PANHANDLE

CITY           SKY/WX    TMP DP  RH WIND       PRES   REMARKS
SCOTTSBLUFF    PTSUNNY   96  49  20 NW12      29.98F HX  93
ALLIANCE       SUNNY     95  50  21 NW12      29.97F HX  92
CHADRON        MOSUNNY   97  40  14 W14G21    29.90F HAZE    HX  92
GORDON         FAIR      92  60  33 NW10      29.93F HX  91
KIMBALL        SUNNY     91  44  19 N12G17    30.06F
SIDNEY         SUNNY     97  46  17 NW10G22   30.02F HX  93
$$

NEZ057>060-069>072-079>082-212200-
SOUTHWEST NEBRASKA

CITY           SKY/WX    TMP DP  RH WIND       PRES   REMARKS
NORTH PLATTE   SUNNY    102  56  21 W8        29.84F HX 101
IMPERIAL       SUNNY    102  48  16 NE5       29.90F HX  98
LEXINGTON      SUNNY     97  74  47 CALM      29.83F HX 107
MCCOOK         MOSUNNY  106  58  20 NW8       29.83F HX 106
OGALLALA       SUNNY    101  45  15 NW8G24    29.91S HX  96
$$

NEZ005>010-023>029-035>040-094-212200-
NORTH CENTRAL NEBRASKA

CITY           SKY/WX    TMP DP  RH WIND       PRES   REMARKS
VALENTINE      MOSUNNY   99  61  28 VRB6G21   29.82S HX  99
AINSWORTH      MOSUNNY   98  67  37 NE6       29.82F HX 102
BROKEN BOW     SUNNY    102  65  29 W8        29.81F HX 105
O`NEILL        SUNNY     91  73  55 N5        29.80S HX  98
ORD            SUNNY     99  70  38 NW6       29.77F HX 106
THEDFORD       SUNNY    102  56  21 NW8G18    29.85F HX 100
$$

NEZ041-046>049-061>064-073>077-083>087-212200-
SOUTH CENTRAL NEBRASKA

CITY           SKY/WX    TMP DP  RH WIND       PRES   REMARKS
GRAND ISLAND   SUNNY     96  72  45 SW12      29.80F HX 104
AURORA         SUNNY     93  74  53 SW6       29.80F HX 103
HASTINGS       SUNNY     95  71  45 W9        29.82F HX 102
HEBRON         SUNNY    101  66  32 S14       29.78S HX 105
HOLDREGE       SUNNY     94  69  44 S6        29.83F HX  99
KEARNEY        SUNNY     94  76  55 S13       29.82F HX 106
YORK           SUNNY     93  77  59 SW8       29.79F HX 107
$$

NEZ011>018-030>034-042>045-212200-
NORTHEAST NEBRASKA

CITY           SKY/WX    TMP DP  RH WIND       PRES   REMARKS
NORFOLK        SUNNY     95  70  44 SW10      29.77F HX 101
ALBION         SUNNY     99  74  44 S12       29.77F HX 109
BLAIR          SUNNY     96  75  49 SW10      29.78S HX 107
FREMONT        MOSUNNY   97  71  43 S9        29.77F HX 104
TEKAMAH        SUNNY     97  74  47 S12G18    29.75F HX 108
WAYNE          SUNNY     93  73  52 S8        29.77F HX 103
$$

NEZ050>053-065>068-078-088>093-212200-
SOUTHEAST NEBRASKA

CITY           SKY/WX    TMP DP  RH WIND       PRES   REMARKS
LINCOLN        SUNNY    100  71  39 SW15      29.76F HX 108
OMAHA EPPLEY   MOSUNNY  100  75  44 S15       29.76R HX 113
BEATRICE       SUNNY    103  67  30 S22G29    29.77F HX 108
NEBRASKA CITY  SUNNY     97  78  54 SW9G16    29.78F HX 113
PLATTSMOUTH    SUNNY     96  75  50 S14       29.77S HX 108
$$

NEZ044-045-051>053-067-212200-
OMAHA AREA

CITY           SKY/WX    TMP DP  RH WIND       PRES   REMARKS
OMAHA EPPLEY   MOSUNNY  100  75  44 S15       29.76R HX 113
BLAIR          SUNNY     96  75  49 SW10      29.78S HX 107
FREMONT        MOSUNNY   97  71  43 S9        29.77F HX 104
MILLARD        SUNNY    101  76  44 S9        29.76S HX 116
OFFUTT AFB     SUNNY     99  75  47 S12G22    29.75F HX 112
PLATTSMOUTH    SUNNY     96  75  50 S14       29.77S HX 108
WAHOO          FAIR      98  71  41 SW14      29.77S HX 105
$$




USA.gov is the U.S. government's official web portal to all federal, state and local government web resources and services.